NI0Z Weather Reports


Display with metric or nautical units.
time (UTC)temp
F
wind
direction
speed
MPH
gust
MPH
rain 1hr
in
rain 24hr
in
rain mn
in
humidity
%
barometer
mb
20260505055059 56 322 0.0 0.0 0.24 0.10 0.10 84
20260505054557 57 307 0.0 1.0 0.31 0.08 0.08 80
20260505054055 59 302 0.0 1.0 0.28 0.05 0.05 74
20260505053551 62 321 2.0 7.0 0.12 0.02 0.02 67
20260505053048 63 316 1.0 3.0 0.00 0.00 0.00 60
20260505052545 63 293 2.0 5.0 0.00 0.00 0.00 60
20260505052043 64 287 2.0 8.0 0.00 0.00 0.00 58
20260505051539 65 321 2.0 5.0 0.00 0.00 0.00 55
20260505051038 66 321 1.0 7.0 0.00 0.00 0.00 52
20260505050535 68 256 5.0 7.0 0.00 0.00 0.00 47
20260505041503 69 354 2.0 2.0 0.00 0.00 0.00 72
20260505041001 69 333 2.0 3.0 0.00 0.00 0.00 72
20260505040458 69 339 3.0 5.0 0.00 0.00 0.00 72
20260505035954 70 338 1.0 3.0 0.00 0.00 0.00 71
20260505035450 70 348 0.0 2.0 0.00 0.00 0.00 71
20260505034948 70 348 1.0 2.0 0.00 0.00 0.00 71
20260505034444 70 334 0.0 0.0 0.00 0.00 0.00 71
20260505033941 70 334 1.0 1.0 0.00 0.00 0.00 71
20260505033438 70 340 0.0 0.0 0.00 0.00 0.00 70
20260505032936 70 330 0.0 0.0 0.00 0.00 0.00 69
20260505032433 70 1 0.0 1.0 0.00 0.00 0.00 69
20260505031929 71 330 0.0 0.0 0.00 0.00 0.00 68
20260505031427 71 337 0.0 0.0 0.00 0.00 0.00 68
20260505030923 71 331 0.0 0.0 0.00 0.00 0.00 67
20260505030419 71 338 1.0 1.0 0.00 0.00 0.00 66
20260505025915 71 336 0.0 0.0 0.00 0.00 0.00 66
20260505025412 72 332 0.0 0.0 0.00 0.00 0.00 66
20260505024911 71 332 0.0 0.0 0.00 0.00 0.00 66
20260505024408 72 327 0.0 0.0 0.00 0.00 0.00 66
20260505023905 71 350 0.0 0.0 0.00 0.00 0.00 65
20260505023402 70 333 0.0 0.0 0.00 0.00 0.00 66
20260505022859 70 329 0.0 0.0 0.00 0.00 0.00 67
20260505022356 70 327 0.0 0.0 0.00 0.00 0.00 67
20260505021854 70 327 0.0 0.0 0.00 0.00 0.00 66
20260505021350 70 329 0.0 0.0 0.00 0.00 0.00 66
20260505020846 70 329 0.0 0.0 0.00 0.00 0.00 65
20260505020341 71 329 0.0 0.0 0.00 0.00 0.00 64
20260505015839 70 329 0.0 0.0 0.00 0.00 0.00 64
20260505015336 70 329 0.0 0.0 0.00 0.00 0.00 65
20260505014833 70 329 0.0 0.0 0.00 0.00 0.00 65
20260505014330 71 328 0.0 0.0 0.00 0.00 0.00 64
20260505013826 71 328 0.0 0.0 0.00 0.00 0.00 64
20260505013324 71 329 0.0 0.0 0.00 0.00 0.00 63
20260505012822 72 328 0.0 0.0 0.00 0.00 0.00 62
20260505012320 72 328 0.0 0.0 0.00 0.00 0.00 61
20260505011815 73 329 0.0 0.0 0.00 0.00 0.00 60
20260505011312 73 325 0.0 0.0 0.00 0.00 0.00 59
20260505010808 73 320 0.0 0.0 0.00 0.00 0.00 59
20260505010304 74 320 0.0 0.0 0.00 0.00 0.00 58
20260505005801 74 320 0.0 0.0 0.00 0.00 0.00 57
20260505005258 75 320 0.0 0.0 0.00 0.00 0.00 57
20260505004755 75 320 0.0 0.0 0.00 0.00 0.00 57
20260505004251 76 320 0.0 0.0 0.00 0.00 0.00 55
20260505003749 76 320 0.0 0.0 0.00 0.00 0.00 54
20260505003246 77 320 0.0 0.0 0.00 0.00 0.00 53
20260505002742 77 320 0.0 0.0 0.00 0.00 0.00 53
20260505002240 77 320 0.0 0.0 0.00 0.00 0.00 52
20260505001737 78 320 0.0 0.0 0.00 0.00 0.00 52
20260505001235 78 320 0.0 0.0 0.00 0.00 0.00 52
20260505000731 77 320 0.0 0.0 0.00 0.00 0.00 52
20260505000229 77 320 0.0 0.0 0.00 0.00 0.00 52
20260504235726 77 320 0.0 0.0 0.00 0.00 0.00 52
20260504235221 77 320 0.0 0.0 0.00 0.00 0.00 51
20260504234719 78 320 0.0 0.0 0.00 0.00 0.00 50
20260504234216 78 323 0.0 0.0 0.00 0.00 0.00 51
20260504233712 78 324 0.0 0.0 0.00 0.00 0.00 50
20260504233208 78 324 0.0 0.0 0.00 0.00 0.00 50
20260504232706 78 320 0.0 0.0 0.00 0.00 0.00 50
20260504232203 78 337 0.0 0.0 0.00 0.00 0.00 49
20260504231659 79 75 0.0 1.0 0.00 0.00 0.00 47
20260504231155 79 326 0.0 0.0 0.00 0.00 0.00 48
20260504230652 80 6 0.0 1.0 0.00 0.00 0.00 47
20260504230151 80 290 0.0 0.0 0.00 0.00 0.00 45
20260504225649 80 290 0.0 3.0 0.00 0.00 0.00 47
20260504225144 80 330 0.0 1.0 0.00 0.00 0.00 45
20260504224642 80 312 0.0 2.0 0.00 0.00 0.00 48
20260504224138 79 325 0.0 0.0 0.00 0.00 0.00 48
20260504223636 80 304 1.0 2.0 0.00 0.00 0.00 48
20260504223131 80 332 0.0 0.0 0.00 0.00 0.00 47
20260504222628 80 224 0.0 0.0 0.00 0.00 0.00 47
20260504222125 80 188 2.0 5.0 0.00 0.00 0.00 45
20260504221623 80 315 0.0 1.0 0.00 0.00 0.00 46
20260504221120 80 331 0.0 0.0 0.00 0.00 0.00 48
20260504220616 79 313 0.0 0.0 0.00 0.00 0.00 51
20260504220114 79 334 0.0 2.0 0.00 0.00 0.00 48
20260504215609 79 265 1.0 2.0 0.00 0.00 0.00 49
20260504215107 78 330 0.0 0.0 0.00 0.00 0.00 48
20260504214603 78 328 0.0 1.0 0.00 0.00 0.00 49
20260504214059 78 357 0.0 2.0 0.00 0.00 0.00 47
20260504213556 79 79 0.0 1.0 0.00 0.00 0.00 48
20260504213053 79 334 0.0 0.0 0.00 0.00 0.00 50
20260504212549 79 339 0.0 0.0 0.00 0.00 0.00 48
20260504212046 79 314 0.0 0.0 0.00 0.00 0.00 52
20260504211543 78 254 0.0 1.0 0.00 0.00 0.00 49
20260504211040 78 356 0.0 1.0 0.00 0.00 0.00 48
20260504210537 78 322 0.0 0.0 0.00 0.00 0.00 50
20260504210034 78 345 0.0 0.0 0.00 0.00 0.00 50
20260504205532 78 312 0.0 1.0 0.00 0.00 0.00 49
20260504205029 79 359 1.0 3.0 0.00 0.00 0.00 48
20260504204527 79 319 0.0 0.0 0.00 0.00 0.00 48
20260504204026 80 320 0.0 0.0 0.00 0.00 0.00 48
20260504203524 80 0 3.0 3.0 0.00 0.00 0.00 48
20260504203021 81 12 0.0 1.0 0.00 0.00 0.00 47
20260504202516 81 326 0.0 3.0 0.00 0.00 0.00 49
20260504202013 81 329 0.0 3.0 0.00 0.00 0.00 48
20260504201510 82 336 0.0 3.0 0.00 0.00 0.00 45
20260504201008 81 320 0.0 2.0 0.00 0.00 0.00 50
20260504200504 81 317 0.0 1.0 0.00 0.00 0.00 45
20260504200001 80 3 1.0 2.0 0.00 0.00 0.00 47
20260504195457 81 20 2.0 6.0 0.00 0.00 0.00 46
20260504194954 81 9 0.0 0.0 0.00 0.00 0.00 48
20260504194450 81 325 0.0 1.0 0.00 0.00 0.00 48
20260504193946 80 350 0.0 1.0 0.00 0.00 0.00 48
20260504193443 81 25 2.0 7.0 0.00 0.00 0.00 48
20260504192942 81 255 2.0 3.0 0.00 0.00 0.00 49
20260504192439 81 359 1.0 5.0 0.00 0.00 0.00 49
20260504191938 81 1 0.0 0.0 0.00 0.00 0.00 48
20260504191435 81 345 2.0 2.0 0.00 0.00 0.00 47
20260504190930 80 331 0.0 0.0 0.00 0.00 0.00 47
20260504190426 79 328 0.0 6.0 0.00 0.00 0.00 49
20260504185923 80 356 2.0 3.0 0.00 0.00 0.00 47
20260504185421 79 334 1.0 2.0 0.00 0.00 0.00 47
20260504184916 79 331 0.0 2.0 0.00 0.00 0.00 47
20260504184412 79 20 1.0 2.0 0.00 0.00 0.00 46
20260504183908 78 330 0.0 1.0 0.00 0.00 0.00 47
20260504183406 78 323 0.0 2.0 0.00 0.00 0.00 53
20260504182903 78 344 1.0 1.0 0.00 0.00 0.00 48
20260504182400 78 237 0.0 3.0 0.00 0.00 0.00 49
20260504181856 77 330 1.0 3.0 0.00 0.00 0.00 48
20260504181354 77 188 1.0 3.0 0.00 0.00 0.00 51
20260504180853 78 326 0.0 2.0 0.00 0.00 0.00 47
20260504180351 77 326 0.0 2.0 0.00 0.00 0.00 49
20260504175849 77 322 0.0 1.0 0.00 0.00 0.00 48
20260504175345 77 317 2.0 3.0 0.00 0.00 0.00 49
20260504174844 77 324 0.0 1.0 0.00 0.00 0.00 53
20260504174341 76 335 0.0 2.0 0.00 0.00 0.00 52
20260504173838 75 333 0.0 3.0 0.00 0.00 0.00 51
20260504173334 76 331 1.0 3.0 0.00 0.00 0.00 51
20260504172831 75 326 0.0 3.0 0.00 0.00 0.00 51
20260504172328 75 331 0.0 0.0 0.00 0.00 0.00 52
20260504171824 75 338 0.0 0.0 0.00 0.00 0.00 53
20260504171321 75 317 1.0 2.0 0.00 0.00 0.00 51
20260504170818 75 312 0.0 0.0 0.00 0.00 0.00 54
20260504170315 75 25 3.0 3.0 0.00 0.00 0.00 50
20260504160233 73 339 2.0 3.0 0.00 0.00 0.00 52
20260504150659 68 333 2.0 2.0 0.00 0.00 0.00 56
20260504150156 68 58 1.0 2.0 0.00 0.00 0.00 57
20260504141124 65 335 0.0 0.0 0.00 0.00 0.00 62
20260504140621 65 329 0.0 0.0 0.00 0.00 0.00 61
20260504140117 65 329 0.0 0.0 0.00 0.00 0.00 61
20260504130545 64 17 3.0 6.0 0.00 0.00 0.00 59
20260504110433 61 330 0.0 0.0 0.00 0.00 0.00 61
20260504100349 64 329 0.0 0.0 0.00 0.00 0.00 55
20260504081743 65 340 1.0 2.0 0.00 0.00 0.00 54
20260504081239 64 4 0.0 3.0 0.00 0.00 0.00 55
20260504080736 64 352 0.0 2.0 0.00 0.00 0.00 55
20260504080232 64 341 2.0 2.0 0.00 0.00 0.00 56
20260504070200 63 337 0.0 0.0 0.00 0.00 0.00 56
20260504060120 62 327 0.0 0.0 0.00 0.00 0.00 59